"Time","Temp","Dewpoint","Humidity","Pressure","Direction","Speed","Gust","Precip","PrecipRate"
"00:04:59","71","64.2","79","30.05","135","0.5","3.6","0.00","0.00"
"00:09:58","70.9","64.2","79.2","30.05","135","0.2","2.4","0.00","0.00"
"00:14:56","70.9","64.3","79.6","30.06","135","0.1","1.2","0.00","0.00"
"00:19:59","70.8","64.3","80","30.06","135","0","1.2","0.00","0.00"
"00:24:57","70.8","64.3","80","30.06","135","0","0","0.00","0.00"
"00:29:58","70.8","64.3","80","30.06","135","0.1","2.4","0.00","0.00"
"00:34:56","70.7","64.3","80.2","30.05","135","0","2.3","0.00","0.00"
"00:39:56","70.6","64.5","81","30.05","135","0","0","0.00","0.00"
"00:44:58","70.6","64.5","81","30.05","135","0","0","0.00","0.00"
"00:49:57","70.6","64.5","81","30.05","135","0","0","0.00","0.00"
"00:54:55","70.5","64.4","81","30.05","135","0","0","0.00","0.00"
"00:59:58","70.4","64.3","81","30.05","135","0","0","0.00","0.00"
"01:04:56","70.2","64.3","81.7","30.05","135","0","1.2","0.00","0.00"
"01:09:56","70","64.2","82","30.05","135","0","0","0.00","0.00"
"01:14:57","69.9","64.2","82","30.05","135","0","0","0.00","0.00"
"01:19:59","69.8","64.3","82.8","30.05","135","0","0","0.00","0.00"
"01:24:58","69.6","64.2","83","30.05","135","0","0","0.00","0.00"
"01:29:56","69.5","64.1","83","30.05","135","0","0","0.00","0.00"
"01:34:58","69.4","64.2","83.4","30.05","135","0","1.2","0.00","0.00"
"01:39:57","69.4","64.4","84","30.05","135","0","0","0.00","0.00"
"01:44:56","69.3","64.3","84","30.05","135","0","0","0.00","0.00"
"01:49:58","69.2","64.2","84","30.05","135","0","0","0.00","0.00"
"01:54:57","69.1","64.1","84.1","30.05","135","0","0","0.00","0.00"
"01:59:59","68.9","64.2","85","30.05","135","0","0","0.00","0.00"
"02:04:58","68.8","64.1","85","30.05","135","0","0","0.00","0.00"
"02:09:58","68.7","64","85","30.05","135","0","0","0.00","0.00"
"02:14:58","68.8","64.1","85","30.05","135","0","0","0.00","0.00"
"02:19:56","68.8","64.1","85","30.05","135","0","0","0.00","0.00"
"02:24:59","68.9","64.2","85","30.05","135","0","0","0.00","0.00"
"02:29:57","68.9","64.2","85","30.05","135","0.5","2.4","0.00","0.00"
"02:34:56","68.7","64.1","85.3","30.04","135","0.2","1.2","0.00","0.00"
"02:39:58","68.5","64.1","86","30.04","135","0","1.2","0.00","0.00"
"02:44:58","68.5","64.1","86","30.04","135","0.1","1.2","0.00","0.00"
"02:49:56","68.6","64.2","86","30.04","135","0","0","0.00","0.00"
"02:54:59","68.6","64.2","86","30.04","135","0","0","0.00","0.00"
"02:59:57","68.6","64.2","86","30.04","135","0","0","0.00","0.00"
"03:04:57","68.6","64.2","86","30.04","135","0","0","0.00","0.00"
"03:09:57","68.6","64.2","86","30.04","135","0.1","1.2","0.00","0.00"
"03:14:57","68.6","64.2","86","30.04","135","0","1.2","0.00","0.00"
"03:19:59","68.6","64.1","85.8","30.04","135","0","0","0.00","0.00"
"03:24:57","68.5","64.1","86","30.04","135","0.1","2.4","0.00","0.00"
"03:29:56","68.3","63.9","86","30.04","135","0","1.2","0.00","0.00"
"03:34:59","68.1","63.8","86","30.04","135","0","0","0.00","0.00"
"03:39:58","67.8","63.5","86","30.04","135","0","1.2","0.00","0.00"
"03:44:58","67.6","63.5","87","30.04","135","0.3","2.4","0.00","0.00"
"03:49:56","67.4","63.5","87.4","30.04","135","0","1.2","0.00","0.00"
"03:54:59","67.2","63.5","88","30.04","135","0","0","0.00","0.00"
"03:59:57","67","63.3","88","30.04","135","0","0","0.00","0.00"
"04:04:59","66.8","63.4","88.7","30.03","135","0","0","0.00","0.00"
"04:09:59","66.6","63.3","89","30.03","135","0","0","0.00","0.00"
"04:14:57","66.5","63.2","89","30.03","135","0","0","0.00","0.00"
"04:19:56","66.5","63.4","89.7","30.03","135","0","0","0.00","0.00"
"04:24:59","66.5","63.5","89.9","30.03","135","0","0","0.00","0.00"
"04:29:58","66.6","63.6","90","30.04","135","0","0","0.00","0.00"
"04:34:56","66.6","63.6","89.8","30.04","135","0","0","0.00","0.00"
"04:39:59","66.6","63.5","89.5","30.04","135","0","0","0.00","0.00"
"04:44:56","66.5","63.5","90","30.04","135","0","0","0.00","0.00"
"04:49:58","66.4","63.4","90","30.04","135","0","0","0.00","0.00"
"04:54:57","66.4","63.7","90.9","30.04","135","0","0","0.00","0.00"
"04:59:59","66.4","63.7","90.8","30.04","135","0","0","0.00","0.00"
"05:04:57","66.4","63.4","90","30.04","135","0","0","0.00","0.00"
"05:09:57","66.3","63.3","90","30.04","135","0","0","0.00","0.00"
"05:14:57","66.2","63.2","90","30.04","135","0","0","0.00","0.00"
"05:19:59","65.9","63","90.1","30.04","135","0","0","0.00","0.00"
"05:24:57","65.8","63.1","91","30.04","135","0","0","0.00","0.00"
"05:29:59","65.6","62.9","91","30.04","135","0","0","0.00","0.00"
"05:34:57","65.5","62.8","91","30.04","135","0","0","0.00","0.00"
"05:39:56","65.3","62.9","91.7","30.04","135","0","0","0.00","0.00"
"05:44:59","65.3","62.9","92","30.04","135","0","0","0.00","0.00"
"05:49:57","65.3","62.9","92","30.04","135","0","0","0.00","0.00"
"05:54:56","65.2","62.8","92","30.04","135","0","0","0.00","0.00"
"05:59:58","65.2","62.8","92","30.05","135","0","0","0.00","0.00"
"06:04:56","65.2","63","92.8","30.05","135","0","0","0.00","0.00"
"06:09:56","65.2","63.1","93","30.05","135","0","0","0.00","0.00"
"06:14:59","65.1","63","93","30.05","135","0","0","0.00","0.00"
"06:19:56","65.2","63.1","93","30.05","135","0","0","0.00","0.00"
"06:24:57","65.2","63.1","93","30.05","135","0","0","0.00","0.00"
"06:29:58","65.2","63.1","93","30.05","135","0","0","0.00","0.00"
"06:34:57","65.2","63.1","93","30.05","135","0","0","0.00","0.00"
"06:39:59","65.2","63.1","93","30.05","135","0","0","0.00","0.00"
"06:44:58","65.2","63.1","93","30.06","135","0","0","0.00","0.00"
"06:49:59","65.3","63.2","93","30.06","135","0","0","0.00","0.00"
"06:54:57","65.3","63.2","93","30.06","135","0","0","0.00","0.00"
"06:59:59","65.3","63.2","93","30.06","135","0","0","0.00","0.00"
"07:04:57","65.3","63.2","93","30.06","135","0","0","0.00","0.00"
"07:09:57","65.3","63.2","93","30.06","135","0","0","0.00","0.00"
"07:14:56","65.3","63.2","93","30.07","135","0","0","0.00","0.00"
"07:19:57","65.3","63.2","93","30.07","135","0","0","0.00","0.00"
"07:24:59","65.3","63.2","93","30.07","135","0","0","0.00","0.00"
"07:29:56","65.4","63.3","93","30.07","135","0","0","0.00","0.00"
"07:34:57","65.6","63.5","93","30.07","135","0","0","0.00","0.00"
"07:39:55","65.8","63.7","93","30.07","135","0","0","0.00","0.00"
"07:44:57","66.4","64.3","93","30.07","135","0","0","0.00","0.00"
"07:49:59","67","64.8","92.4","30.06","135","0","0","0.00","0.00"
"07:54:56","67.7","65.1","91.5","30.06","135","0","0","0.00","0.00"
"07:59:57","68.5","65.5","90.3","30.06","135","0","0","0.00","0.00"
"08:04:59","69.3","66.1","89.5","30.06","135","0","0","0.00","0.00"
"08:09:59","70.6","66.7","87.5","30.06","135","0","0","0.00","0.00"
"08:14:57","71.5","66.9","85.4","30.07","135","0","0","0.00","0.00"
"08:19:58","72.1","67.2","84.7","30.07","92","0.1","3.6","0.00","0.00"
"08:24:59","72.6","67","82.7","30.07","92","0.4","3.5","0.00","0.00"
"08:29:56","73.4","67.5","81.9","30.07","92","0","0","0.00","0.00"
"08:34:57","74.4","68.2","81.1","30.07","92","0","0","0.00","0.00"
"08:39:59","75","68.1","79.3","30.07","92","0","0","0.00","0.00"
"08:44:56","75","67.7","78.2","30.07","92","0","0","0.00","0.00"
"08:49:57","75","67.7","77.9","30.06","92","0","0","0.00","0.00"
"08:54:58","75.4","67.5","76.6","30.06","92","0","0","0.00","0.00"
"08:59:58","75.9","68.1","76.8","30.06","92","0","0","0.00","0.00"
"09:04:56","76.6","68.2","75.2","30.06","92","0","0","0.00","0.00"
"09:09:56","77.2","68","73.3","30.06","92","0","0","0.00","0.00"
"09:14:58","77.8","68.2","72.5","30.06","92","0","2.4","0.00","0.00"
"09:19:59","78.4","68.2","71.2","30.06","92","0.5","2.4","0.00","0.00"
"09:24:57","79","68.7","70.8","30.06","92","0","0","0.00","0.00"
"09:29:56","79.9","69.3","70.1","30.06","92","0.7","3.6","0.00","0.00"
"09:34:58","80.6","68.7","67.3","30.06","92","0.3","2.3","0.00","0.00"
"09:39:58","81.3","69.1","66.5","30.06","93","0.3","3.6","0.00","0.00"
"09:44:57","82.3","69.1","64.5","30.06","94","1.4","3.5","0.00","0.00"
"09:49:59","83","68.7","62.2","30.06","65","2.3","6","0.00","0.00"
"09:54:57","83.3","68.6","61.3","30.06","355","2.1","6","0.00","0.00"
"09:59:59","83.9","69.2","61.4","30.06","353","2","6","0.00","0.00"
"10:04:58","84.3","69","60.1","30.05","324","1.6","3.6","0.00","0.00"
"10:09:56","85","69.7","60.3","30.05","228","2.3","6","0.00","0.00"
"10:14:59","85.9","69.6","58.4","30.05","307","2.9","8.4","0.00","0.00"
"10:19:58","86.2","69.7","58","30.05","315","1.8","6","0.00","0.00"
"10:24:56","86.8","70.1","57.7","30.05","292","1.9","4.8","0.00","0.00"
"10:29:58","86.9","69.9","57.3","30.05","203","2.8","7.2","0.00","0.00"
"10:34:56","87","70.2","57.7","30.05","256","4.2","13.2","0.00","0.00"
"10:39:59","86.5","69.7","57.5","30.05","337","3.8","8.1","0.00","0.00"
"10:44:57","87","70.3","57.8","30.05","325","2.9","8.4","0.00","0.00"
"10:49:59","86.9","70.2","57.9","30.05","330","3.2","7.2","0.00","0.00"
"10:54:58","86.9","70.2","57.7","30.05","309","3.6","8.4","0.00","0.00"
"10:59:56","87.4","70.2","56.8","30.05","342","4.2","13.2","0.00","0.00"
"11:04:59","87.3","70.2","57","30.04","230","3.9","9.6","0.00","0.00"
"11:09:56","88.4","70.7","56","30.04","297","2.3","7.2","0.00","0.00"
"11:14:57","88.9","70.5","54.8","30.04","331","2.9","7.2","0.00","0.00"
"11:19:56","89.6","71","54.6","30.04","317","2.6","8.4","0.00","0.00"
"11:24:59","89.6","70.4","53.4","30.04","344","4.6","16.8","0.00","0.00"
"11:29:58","88.5","68.7","52","30.04","329","6.9","19.6","0.00","0.00"
"11:34:57","88.7","68.8","52","30.03","303","4.9","11.5","0.00","0.00"
"11:39:56","88.8","69.1","52.3","30.03","285","4.3","12","0.00","0.00"
"11:44:56","89.5","69.6","52.1","30.03","256","4.2","10.8","0.00","0.00"
"11:49:58","90.3","70.3","51.9","30.02","235","4.6","10.8","0.00","0.00"
"11:54:57","90.7","69.7","50.3","30.02","268","5","12","0.00","0.00"
"11:59:56","90.1","69","50.2","30.02","305","3.7","12","0.00","0.00"
"12:04:56","90.3","68.7","49.3","30.02","306","3.5","10.8","0.00","0.00"
"12:09:57","90.7","69","49.1","30.02","351","3.5","12","0.00","0.00"
"12:14:58","91","68.5","48","30.02","338","4.9","16.1","0.00","0.00"
"12:19:57","90.9","68.9","48.7","30.01","312","5","16.1","0.00","0.00"
"12:24:56","91.4","69","48.1","30.01","255","4.2","10.4","0.00","0.00"
"12:29:59","91.6","69.4","48.4","30.01","310","5.8","13.2","0.00","0.00"
"12:34:58","91.5","69.8","49.4","30.01","326","4.1","8.4","0.00","0.00"
"12:39:58","92.5","70.5","49","30.01","269","3.4","8.4","0.00","0.00"
"12:44:58","92.7","70.5","48.6","30.01","320","3.4","14.4","0.00","0.00"
"12:49:57","92","70","48.8","30.00","284","4.5","15","0.00","0.00"
"12:54:56","92.2","69.7","48.1","30.00","254","4.8","10.8","0.00","0.00"
"12:59:59","92.6","70","47.9","30.00","201","3.8","9.6","0.00","0.00"
"13:04:58","93.2","69.9","46.8","29.99","227","5.7","13.2","0.00","0.00"
"13:09:56","93.5","70.7","47.7","29.99","199","3.2","8.1","0.00","0.00"
"13:14:56","93.8","70.5","47.1","29.99","244","4","8.4","0.00","0.00"
"13:19:59","93.8","71.3","48.3","29.98","253","1.6","5.8","0.00","0.00"
"13:24:59","93.8","68.9","44.5","29.98","341","4","10.8","0.00","0.00"
"13:29:59","93.5","69.4","45.7","29.98","320","4.3","12","0.00","0.00"
"13:34:58","93.8","69.2","44.9","29.98","271","3.6","10.8","0.00","0.00"
"13:39:57","93.5","69.4","45.6","29.98","349","3.5","8.4","0.00","0.00"
"13:44:57","93.5","68.6","44.5","29.98","332","4.5","12","0.00","0.00"
"13:49:56","93","68.8","45.4","29.97","328","3.4","12","0.00","0.00"
"13:54:57","93.9","68.1","43.1","29.97","296","4.2","10.8","0.00","0.00"
"13:59:56","93.8","68.1","43.3","29.97","216","3.1","7.2","0.00","0.00"
"14:04:57","94.7","67.6","41.3","29.97","247","3.2","7.2","0.00","0.00"
"14:09:58","95.2","67.9","41.1","29.97","214","4.2","8.4","0.00","0.00"
"14:14:55","96.2","68.3","40.5","29.97","236","4","8.4","0.00","0.00"
"14:19:59","97","68.3","39.5","29.96","279","3.5","9.6","0.00","0.00"
"14:24:58","96.4","67.6","39.3","29.96","285","2.6","6.9","0.00","0.00"
"14:29:57","96.4","68","39.9","29.96","259","3.5","9.6","0.00","0.00"
"14:34:56","96.3","67.3","39","29.95","314","4.5","16.1","0.00","0.00"
"14:39:56","96","66.9","38.7","29.95","339","6.5","19.6","0.00","0.00"
"14:44:59","95.6","66.7","39.2","29.95","331","5.2","13.2","0.00","0.00"
"14:49:58","96.5","67.1","38.5","29.94","341","5.7","17.3","0.00","0.00"
"14:54:57","96.1","66.9","38.7","29.94","305","5.8","18.4","0.00","0.00"
"14:59:57","96.1","66.9","38.7","29.94","342","3.1","8.4","0.00","0.00"
"15:04:56","96.4","66.4","37.6","29.93","325","3.9","15","0.00","0.00"
"15:09:57","96.6","66.4","37.5","29.93","331","5.1","15","0.00","0.00"
"15:14:58","96.3","65.9","37.2","29.93","308","4","10.8","0.00","0.00"
"15:19:57","96.8","66.7","37.6","29.93","300","3.7","12","0.00","0.00"
"15:24:56","96.8","67.4","38.6","29.93","292","2.7","8.4","0.00","0.00"
"15:29:59","97.2","67.7","38.4","29.93","285","4.2","13.2","0.00","0.00"
"15:34:58","96.9","67.3","38.3","29.92","327","5.3","13.2","0.00","0.00"
"15:39:57","96.2","67.6","39.4","29.92","319","4.7","10.8","0.00","0.00"
"15:44:57","96.7","68.1","39.7","29.92","337","4.4","13.2","0.00","0.00"
"15:49:56","96.4","67.5","39.2","29.92","317","5.6","13.2","0.00","0.00"
"15:54:59","96.6","68.8","40.6","29.92","338","2.7","8.4","0.00","0.00"
"15:59:58","97.5","68.5","39.2","29.92","319","3.3","12","0.00","0.00"
"16:04:57","97.5","67.8","38.3","29.91","303","4.8","15","0.00","0.00"
"16:09:59","97.5","67.8","38.2","29.91","300","4","15","0.00","0.00"
"16:14:59","97.3","67.5","38.1","29.91","330","4","8.4","0.00","0.00"
"16:19:58","97.1","67.6","38.5","29.91","268","3.4","8.4","0.00","0.00"
"16:24:57","97","67.8","38.9","29.91","275","3.1","6","0.00","0.00"
"16:29:56","96.9","67.3","38.2","29.91","326","5.1","15","0.00","0.00"
"16:34:59","96.7","68.5","40.1","29.90","319","3.5","7.2","0.00","0.00"
"16:39:59","97.5","68.5","39.2","29.90","350","2.8","8.4","0.00","0.00"
"16:44:58","98","68.5","38.5","29.90","311","3.1","12","0.00","0.00"
"16:49:57","98","68.3","38.2","29.90","235","4","14.4","0.00","0.00"
"16:54:57","97.7","67.9","38.2","29.90","253","2.8","15","0.00","0.00"
"16:59:56","97.4","67.7","38.2","29.90","305","2.6","8.4","0.00","0.00"
"17:04:59","97.4","68","38.6","29.90","308","3.7","10.8","0.00","0.00"
"17:09:56","97.3","68.2","39","29.90","327","3.7","15","0.00","0.00"
"17:14:56","97.3","67.9","38.6","29.90","312","4.2","10.8","0.00","0.00"
"17:19:59","97","68.3","39.5","29.90","335","3.2","9.6","0.00","0.00"
"17:24:59","96.9","68.1","39.3","29.90","320","3","8.1","0.00","0.00"
"17:29:58","97.1","68.1","39.2","29.90","320","2.9","7.2","0.00","0.00"
"17:34:58","97.1","68.5","39.6","29.90","315","2.4","13.2","0.00","0.00"
"17:39:57","97","67.8","38.8","29.90","320","4","12.7","0.00","0.00"
"17:44:58","96.3","67.7","39.5","29.90","346","4.1","14.4","0.00","0.00"
"17:49:57","96","67.7","39.8","29.90","301","3.9","12","0.00","0.00"
"17:54:56","95.7","67.4","39.8","29.90","309","4.3","13.2","0.00","0.00"
"17:59:59","95.6","67.9","40.7","29.90","317","2.7","12","0.00","0.00"
"18:04:59","95.5","67.5","40.3","29.90","339","4.1","12","0.00","0.00"
"18:09:56","95.1","67.3","40.5","29.90","350","4","12","0.00","0.00"
"18:14:56","94.4","67.1","41","29.90","347","3.5","8.4","0.00","0.00"
"18:19:59","93.8","66.7","41.2","29.90","337","5.7","15","0.00","0.00"
"18:24:59","93.4","66.8","42","29.90","336","4.1","8.4","0.00","0.00"
"18:29:59","93.1","66.7","42.1","29.90","347","3.8","12","0.00","0.00"
"18:34:57","92.9","66.8","42.6","29.90","342","3.6","8.4","0.00","0.00"
"18:39:56","92.7","67","43.2","29.90","331","2.8","6","0.00","0.00"
"18:44:58","92.4","66.8","43.2","29.90","327","2.8","6","0.00","0.00"
"18:49:57","92.3","67","43.7","29.90","334","2.6","6","0.00","0.00"
"18:54:57","92.1","67","44","29.90","338","2.4","7.2","0.00","0.00"
"18:59:56","91.8","67","44.3","29.91","335","2.5","10.8","0.00","0.00"
"19:04:59","91.5","67.2","45","29.91","293","1.4","4.8","0.00","0.00"
"19:09:57","91.1","67","45.4","29.91","317","1.8","6","0.00","0.00"
"19:14:58","90.7","67.1","46","29.91","328","1.5","3.6","0.00","0.00"
"19:19:59","90.4","66.8","46","29.91","335","0.5","3.5","0.00","0.00"
"19:24:59","90.1","66.8","46.5","29.91","330","1.5","6","0.00","0.00"
"19:29:58","89.8","66.6","46.7","29.91","327","0.7","2.4","0.00","0.00"
"19:34:59","89.5","66.6","47","29.91","327","0.5","2.4","0.00","0.00"
"19:39:59","89.1","66.7","47.6","29.91","327","0.3","1.2","0.00","0.00"
"19:44:56","88.7","66.6","48.2","29.91","327","0.4","2.4","0.00","0.00"
"19:49:56","88.3","66.6","48.7","29.91","327","0","1.2","0.00","0.00"
"19:54:57","87.9","66.8","49.7","29.91","327","0","0","0.00","0.00"
"19:59:57","87.3","67.2","51.5","29.91","327","0","0","0.00","0.00"
"20:04:58","86.5","67.2","52.8","29.91","327","0","0","0.00","0.00"
"20:09:56","85.6","67.2","54.3","29.91","327","0","0","0.00","0.00"
"20:14:58","84.8","67.2","55.8","29.92","327","0","0","0.00","0.00"
"20:19:58","84.1","66.9","56.5","29.92","327","0","0","0.00","0.00"
"20:24:59","83.5","66.9","57.4","29.92","327","0","0","0.00","0.00"
"20:29:59","83","67.4","59.4","29.92","327","0","0","0.00","0.00"
"20:34:56","82.4","67.4","60.7","29.92","327","0","0","0.00","0.00"
"20:39:56","81.8","67.2","61.5","29.92","327","0","0","0.00","0.00"
"20:44:58","81.2","66.9","62.1","29.92","327","0","0","0.00","0.00"
"20:49:59","80.7","67.2","63.4","29.92","327","0","0","0.00","0.00"
"20:54:56","80.3","67","64","29.92","327","0","0","0.00","0.00"
"20:59:56","79.9","67.1","64.9","29.93","327","0","0","0.00","0.00"
"21:04:56","79.5","66.7","65","29.93","327","0","0","0.00","0.00"
"21:09:59","79.2","66.8","65.8","29.93","327","0","0","0.00","0.00"
"21:14:57","79","67","66.7","29.93","327","0","0","0.00","0.00"
"21:19:57","78.9","67","67","29.93","327","0.2","1.2","0.00","0.00"
"21:24:58","78.9","67","67","29.93","327","0.1","1.2","0.00","0.00"
"21:29:57","78.8","66.9","67","29.93","327","0","0","0.00","0.00"
"21:34:56","78.7","66.8","67","29.93","327","0","0","0.00","0.00"
"21:39:59","78.7","66.8","67.2","29.93","327","0.1","1.2","0.00","0.00"
"21:44:58","78.6","66.8","67.2","29.93","327","0","1.2","0.00","0.00"
"21:49:56","78.6","66.7","67","29.93","321","0.7","2.4","0.00","0.00"
"21:54:57","78.8","66.8","66.8","29.93","321","0.6","3.6","0.00","0.00"
"21:59:57","79.1","67","66.6","29.93","321","0.1","2.4","0.00","0.00"
"22:04:57","79.2","67","66.2","29.93","321","0.3","2.3","0.00","0.00"
"22:09:56","79.2","66.9","66","29.93","321","0","1.2","0.00","0.00"
"22:14:57","79.2","66.9","66","29.93","319","0.1","1.2","0.00","0.00"
"22:19:57","79.2","67.2","66.7","29.93","317","0.4","2.4","0.00","0.00"
"22:24:58","79.4","67.5","67.1","29.93","315","0.5","2.4","0.00","0.00"
"22:29:58","79.6","67.9","67.4","29.93","313","0.7","3.6","0.00","0.00"
"22:34:58","80","68.2","67.2","29.93","313","0.5","2.4","0.00","0.00"
"22:39:58","80.2","68.1","66.8","29.93","347","1.9","4.8","0.00","0.00"
"22:44:59","80.3","68","66.1","29.93","354","2","4.8","0.00","0.00"
"22:49:58","80.6","68.2","66","29.93","342","3.5","8.4","0.00","0.00"
"22:54:58","80.9","68.5","66","29.93","314","2.5","8.4","0.00","0.00"
"22:59:57","81.1","68.3","65.2","29.93","316","1.4","4.6","0.00","0.00"
"23:04:57","81.2","68.3","65","29.93","331","2.5","6","0.00","0.00"
"23:09:59","81.3","68.4","65","29.93","323","1.1","4.6","0.00","0.00"
"23:14:58","81.2","68.3","65","29.94","323","0","0","0.00","0.00"
"23:19:58","81.1","68.2","65","29.94","323","0.6","2.4","0.00","0.00"
"23:24:58","80.9","68.4","65.8","29.94","359","1","6","0.00","0.00"
"23:29:57","80.8","68.4","66","29.94","331","1.6","4.8","0.00","0.00"
"23:34:57","80.6","68.2","66","29.94","335","2.4","6","0.00","0.00"
"23:39:57","80.6","68.3","66.2","29.94","325","2.9","7.2","0.00","0.00"
"23:44:58","80.7","68.5","66.6","29.94","293","2","4.8","0.00","0.00"
"23:49:58","80.6","68.5","66.8","29.93","321","1.8","4.8","0.00","0.00"
